Weather History for Siloam Springs, AR

Change the Weather History Date:

Thursday, February 7, 2013

  Actual Average Record
Temperature  
Mean Temperature 48 °F -  
Max Temperature 55 °F 46 °F 66 °F (2009)
Min Temperature 42 °F 29 °F 6 °F (2003)
Degree Days  
Heating Degree Days 16    
Moisture  
Dew Point 44 °F    
Average Humidity 78    
Maximum Humidity 82    
Minimum Humidity 71    
Precipitation  
Precipitation 0.05 in - - ()
Sea Level Pressure  
Sea Level Pressure 29.96 in    
Wind  
Wind Speed 10 mph (SSE)    
Max Wind Speed 22 mph    
Max Gust Speed 24 mph    
Visibility 8 miles    
Events      
Averages and records for this station are not official NWS values.
T = Trace of Precipitation, MM = Missing Value Source: NWS Daily Summary

Daily Weather History Graph

Daily Weather History Graph

Search for Another Location

Airport:

Trip Planner

Search our weather history database for the weather conditions in past years. The results will help you decide how hot, cold, wet, or windy it might be!

Date:

Astronomy

Feb. 07, 2013 Rise Set
Actual Time 7:13 AM CST 5:51 PM CST
Civil Twilight 6:46 AM CST 6:17 PM CST
Nautical Twilight 6:16 AM CST 6:48 PM CST
Astronomical Twilight 5:46 AM CST 7:18 PM CST
Moon 4:50 AM CST (2/7) 3:19 PM CST (2/7)
Length of Visible Light 11h 31m
Length of Day
10h 37m
Waning Crescent, 9% of the Moon is Illuminated
Feb 7
Waning Crescent
Feb 10
New
Feb 17
First Quarter
Feb 25
Full
Mar 4
Last Quarter

Hourly Weather History & Observations

Time (CST) Temp. Windchill Dew Point Humidity Pressure Visibility Wind Dir Wind Speed Gust Speed Precip Events Conditions
12:15 AM 48.2 °F - 39.2 °F 71% 29.97 in 10.0 mi SSE 8.1 mph - N/A   Overcast
12:35 AM 48.2 °F - 39.2 °F 71% 29.97 in 10.0 mi SSE 5.8 mph - N/A   Mostly Cloudy
12:55 AM 48.2 °F - 39.2 °F 71% 29.96 in 10.0 mi SE 8.1 mph - N/A   Scattered Clouds
1:15 AM 50.0 °F - 42.8 °F 76% 29.96 in 10.0 mi SSE 8.1 mph - N/A   Mostly Cloudy
1:55 AM 51.8 °F - 44.6 °F 76% 29.95 in 10.0 mi SSE 11.5 mph - N/A   Overcast
2:16 AM 51.8 °F - 44.6 °F 76% 29.94 in 10.0 mi SSE 8.1 mph - N/A   Overcast
2:35 AM 51.8 °F - 44.6 °F 76% 29.94 in 10.0 mi SSE 10.4 mph - N/A   Overcast
2:55 AM 51.8 °F - 44.6 °F 76% 29.93 in 10.0 mi SSE 11.5 mph - N/A   Overcast
3:16 AM 51.8 °F - 44.6 °F 76% 29.92 in 10.0 mi SSE 10.4 mph - N/A   Overcast
3:35 AM 51.8 °F - 46.4 °F 82% 29.93 in 10.0 mi South 6.9 mph - N/A   Overcast
3:55 AM 51.8 °F - 46.4 °F 82% 29.92 in 9.0 mi South 9.2 mph - N/A   Overcast
5:35 AM 53.6 °F - 46.4 °F 77% 29.90 in 10.0 mi SSE 13.8 mph 19.6 mph N/A   Overcast
5:36 AM 53.6 °F - 46.4 °F 77% 29.90 in 10.0 mi SSE 12.7 mph 19.6 mph N/A   Overcast
5:55 AM 51.8 °F - 46.4 °F 82% 29.90 in 10.0 mi SSE 10.4 mph - N/A   Mostly Cloudy
6:15 AM 51.8 °F - 44.6 °F 76% 29.89 in 10.0 mi SSE 12.7 mph - N/A   Partly Cloudy
6:35 AM 51.8 °F - 44.6 °F 76% 29.89 in 10.0 mi SSE 5.8 mph - N/A   Clear
6:55 AM 51.8 °F - 44.6 °F 76% 29.91 in 10.0 mi South 5.8 mph - N/A   Mostly Cloudy
7:15 AM 51.8 °F - 44.6 °F 76% 29.90 in 10.0 mi South 8.1 mph - N/A   Overcast
8:15 AM 51.8 °F - 46.4 °F 82% 29.91 in 10.0 mi South 5.8 mph - N/A   Overcast
8:35 AM 53.6 °F - 46.4 °F 77% 29.90 in 10.0 mi SSE 9.2 mph - N/A   Overcast
8:55 AM 53.6 °F - 46.4 °F 77% 29.90 in 10.0 mi SSE 9.2 mph - N/A   Overcast
9:35 AM 55.4 °F - 46.4 °F 72% 29.91 in 10.0 mi South 8.1 mph - N/A   Overcast
10:35 AM 55.4 °F - 48.2 °F 77% 29.94 in 10.0 mi SSW 8.1 mph - N/A   Overcast
10:55 AM 55.4 °F - 48.2 °F 77% 29.95 in 9.0 mi SW 6.9 mph - N/A   Overcast
11:15 AM 55.4 °F - 48.2 °F 77% 29.94 in 5.0 mi SSW 11.5 mph - N/A   Overcast
11:35 AM 53.6 °F - 48.2 °F 82% 29.94 in 5.0 mi SSW 9.2 mph - N/A   Overcast
11:55 AM 53.6 °F - 48.2 °F 82% 29.93 in 6.0 mi SSW 5.8 mph - N/A   Overcast
12:35 PM 53.6 °F - 48.2 °F 82% 29.91 in 6.0 mi SSW 9.2 mph - N/A   Overcast
1:35 PM 55.4 °F - 48.2 °F 77% 29.89 in 8.0 mi SSW 4.6 mph - N/A   Overcast
1:55 PM 55.4 °F - 48.2 °F 77% 29.89 in 7.0 mi West 4.6 mph - N/A   Overcast
2:35 PM 53.6 °F - 48.2 °F 82% 29.90 in 1.8 mi NNW 4.6 mph - N/A   Overcast
2:55 PM 53.6 °F - 48.2 °F 82% 29.90 in 1.2 mi NNW 10.4 mph - N/A   Overcast
3:15 PM 53.6 °F - 48.2 °F 82% 29.91 in 2.5 mi NNW 13.8 mph - 0.01 in   Overcast
3:35 PM 53.6 °F - 48.2 °F 82% 29.91 in 4.0 mi NNW 11.5 mph - 0.01 in   Overcast
3:36 PM 53.6 °F - 48.2 °F 82% 29.91 in 4.0 mi NNW 11.5 mph - 0.01 in   Overcast
4:55 PM 51.8 °F - 46.4 °F 82% 29.93 in 10.0 mi North 12.7 mph - N/A   Overcast
5:35 PM 51.8 °F - 44.6 °F 76% 29.95 in 10.0 mi North 11.5 mph - N/A   Overcast
5:55 PM 50.0 °F - 44.6 °F 82% 29.97 in 10.0 mi North 8.1 mph - 0.01 in   Overcast
6:35 PM 50.0 °F - 44.6 °F 82% 29.98 in 10.0 mi North 11.5 mph - 0.03 in   Overcast
6:55 PM 50.0 °F - 44.6 °F 82% 29.99 in 10.0 mi North 9.2 mph - 0.03 in   Overcast
7:35 PM 48.2 °F - 42.8 °F 82% 30.02 in 4.0 mi NNW 15.0 mph - N/A   Overcast
7:55 PM 48.2 °F - 42.8 °F 82% 30.03 in 5.0 mi North 21.9 mph - N/A   Overcast
8:35 PM 46.4 °F 39.0 °F 39.2 °F 76% 30.03 in 5.0 mi North 19.6 mph - N/A   Overcast
8:55 PM 46.4 °F 39.2 °F 39.2 °F 76% 30.04 in 5.0 mi North 18.4 mph 24.2 mph N/A   Overcast
9:15 PM 46.4 °F 40.1 °F 39.2 °F 76% 30.05 in 7.0 mi North 15.0 mph 23.0 mph N/A   Overcast
9:55 PM 46.4 °F 39.2 °F 39.2 °F 76% 30.07 in 10.0 mi North 18.4 mph 23.0 mph N/A   Overcast
10:15 PM 44.6 °F 38.8 °F 37.4 °F 76% 30.08 in 10.0 mi North 11.5 mph - N/A   Overcast
10:55 PM 44.6 °F 39.2 °F 37.4 °F 76% 30.09 in 9.0 mi North 10.4 mph - N/A   Overcast
11:15 PM 44.6 °F 38.4 °F 37.4 °F 76% 30.09 in 10.0 mi North 12.7 mph - N/A   Overcast
11:35 PM 42.8 °F 36.6 °F 35.6 °F 76% 30.10 in 10.0 mi North 11.5 mph - N/A   Mostly Cloudy
11:55 PM 42.8 °F 36.6 °F 35.6 °F 76% 30.11 in 10.0 mi North 11.5 mph - N/A   Mostly Cloudy